Find Starlink 34950

NORAD ID: 65193 Int'l Des: 2025-175 Owner: SPXS Country: US Constellation: starlink operational
LEOCIRCULARRETROGRADESSO

現在のビュー

3D地球を読み込み中...

About Starlink 34950

Starlink 34950 (NORAD 65193) is a starlink constellation satellite (v2 mini) launched Aug 14, 2025 by SPXS of US. It operates in LEO, CIRCULAR, RETROGRADE, SSO orbit with a mass of 575.00 kg.

次回通過

Passes for default location (London). Set your location on the main map for personalized predictions.

高度履歴

Loading altitude history...

軌道要素

1 65193U 25175V 26238.38543473 .00018850 00000-0 58492-3 0 9995
2 65193 97.2836 107.7219 0001662 82.8261 277.3171 15.33434966 58252
Epoch: Aug 26, 2026 • Age: 8 hours

現在のステータス

高度 472.2 km
遠地点 / 近地点 N/A
速度 7.64 km/s
衛星直下点 48.03°N, 134.41°W
打ち上げ日 Aug 14, 2025
運用期間 1 year
タイプ internet

技術仕様

分類 Payload
質量 575.00 kg
乾燥質量 530.00 kg
総質量 575.00 kg
長さ 0.30 m
直径 4.10 m
スパン 29.00 m
形状 Box + pan
製造者 SPXS
バスタイプ Starlink V2MO
フェーズステータス In Orbit
所有者/国 SPXS/US

Most Searched